sat.trackr.live / text

‹ back to catalog

SIT-2086

NORAD 61764 · 2024-199AF

PAYLOAD ACTIVE UNKNOWN

§ Identity

Operator
Country
CIS
Launch date
2024-11-04
Launch site
VOSTO
Launch vehicle
Mass (kg)
RCS (m²)

Purposes: comms

External: N2YO · Heavens-Above · Gunter

§ Orbital elements

Epoch: 2026-09-19T21:33:16.095744Z

Period
92.31 min
Inclination
97.2750°
Eccentricity
0.0003010
Mean motion
15.60036423 rev/d
Perigee alt
385.5 km
Apogee alt
389.6 km
Semi-major
6,765.7 km
B*
4.8251e-4
RAAN
141.1530°
Arg perigee
267.4111°
Mean anomaly
92.6801°
Rev number
14,916

§ Raw data

SIT-20861 61764U 24199AF  26262.89810296  .00039048  00000+0  48251-3 0  99962 61764  97.2750 141.1530 0003010 267.4111  92.6801 15.60036423149164

JSON: /api/v1/satellites/61764 · /tle

For live sub-satellite position, see the globe view (requires WebGL).

§ Visibility from observer

Set your observer location to see the next 7 days of passes ≥ 10°. The values pass through the URL so the page stays shareable.

No JS? Fill the form by hand. The geolocation button needs JavaScript.

§ Radio — SatNOGS DB

ModeDescriptionDownlinkUplink
GMSK USP Mode U - GMSK2k4 USP 401.030 MHz

1 transmitter · refreshed weekly from db.satnogs.org